This demonstration page uses our WeatherBlox Daily Observations layout. Learn more.

Left ArrowRight Arrow

41.86663, -103.66717

Hourly Observations for January 17, 2022

Temp ( °F °C ) Dew Point ( °F °C ) Humidity (%) Winds ( mph kmh ) Pressure ( in mb ) Visibility ( mi km ) Precip ( " mm )
12:53 am 00:53 Clear 25 -3.9 19 -7.2 78 78 E 5 7 30.00 1016 10 16 0.00 0.00
1:53 am 01:53 Clear 25 -3.9 19 -7.2 78 78 ENE 7 11 29.98 1015 10 16 0.00 0.00
2:53 am 02:53 Clear 23 -5 18 -7.8 81 81 Calm 29.96 1015 10 16 0.00 0.00
3:53 am 03:53 Clear 23 -5 18 -7.8 81 81 NNW 3 6 29.96 1014 10 16 0.00 0.00
4:53 am 04:53 Clear 22 -5.6 17 -8.3 82 82 NW 6 9 29.97 1015 10 16 0.00 0.00
5:53 am 05:53 Clear 21 -6.1 16 -8.9 81 81 WNW 6 9 30.00 1016 10 16 0.00 0.00
6:53 am 06:53 Clear 22 -5.6 16 -8.9 78 78 NW 7 11 30.00 1016 10 16 0.00 0.00
7:53 am 07:53 Sunny 28 -2.2 20 -6.7 72 72 NW 6 9 30.00 1016 10 16 0.00 0.00
8:53 am 08:53 Sunny 36 2.2 23 -5 59 59 WNW 10 17 29.99 1016 10 16 0.00 0.00
9:53 am 09:53 Sunny 43 6.1 21 -6.1 42 42 WNW 12 19 29.98 1015 10 16 0.00 0.00
10:53 am 10:53 Sunny 47 8.3 22 -5.6 37 37 WNW 8 13 29.95 1014 10 16 0.00 0.00
11:53 am 11:53 Sunny 53 11.7 24 -4.4 32 32 NW 9 15 29.89 1012 10 16 0.00 0.00
12:53 pm 12:53 Sunny 59 15 19 -7.2 21 21 WNW 15 24 29.84 1010 10 16 0.00 0.00
1:53 pm 13:53 Sunny 60 15.6 17 -8.3 19 19 WNW 16 26 29.82 1010 10 16 0.00 0.00
2:53 pm 14:53 Sunny 57 13.9 18 -7.8 22 22 W 20 31 29.83 1010 10 16 0.00 0.00
3:53 pm 15:53 Sunny 54 12.2 19 -7.2 25 25 WNW 12 19 29.85 1011 10 16 0.00 0.00
4:53 pm 16:53 Clear 47 8.3 19 -7.2 33 33 WNW 7 11 29.86 1011 10 16 0.00 0.00
5:53 pm 17:53 Clear 42 5.6 20 -6.7 41 41 W 7 11 29.88 1012 10 16 0.00 0.00
6:53 pm 18:53 Clear 34 1.1 21 -6.1 59 59 NW 5 7 29.91 1013 10 16 0.00 0.00
7:53 pm 19:53 Clear 34 1.1 21 -6.1 59 59 NW 6 9 29.90 1012 10 16 0.00 0.00
8:53 pm 20:53 Clear 34 1.1 20 -6.7 56 56 Calm 29.87 1012 10 16 0.00 0.00
9:53 pm 21:53 Clear 34 1.1 20 -6.7 56 56 NW 5 7 29.84 1011 10 16 0.00 0.00
10:53 pm 22:53 Clear 32 0 21 -6.1 64 64 NW 9 15 29.83 1010 10 16 0.00 0.00
11:53 pm 23:53 Clear 35 1.7 21 -6.1 57 57 N 10 17 29.79 1009 10 16 0.00 0.00

Powered by AerisWeather